Volver al catálogo

COSMOS 886 DEB

ActivoLEO
NORAD 9822·DEBRIS·🇷🇺 Russia

Lanzado Dec 27, 1976 desde Baikonur Cosmodrome

Loading…

Próximos Pases (próximas 24 horas)

TLE

ActualizadoSource: Space-Track

Época: Sep 13, 2026, 07:59 UTC

1 09822U 76126AJ  26256.33275082  .00000684  00000-0  35755-3 0  9990
2 09822  65.7786 221.8954 0911111  53.1998 314.9166 12.96808592318879

Sigue COSMOS 886 DEB en tiempo real con AllMySat

Download on the App Store